[[{"header":{"parameterUnit":"m.s-1","parameterCategory":1,"la1":30.2991,"la2":30.254,"lo1":-89.0895,"lo2":-89.0444,"dy":0.0017,"dx":0.0017,"nx":28,"ny":28,"refTime":"2025-08-03T03:00:00:Z","depth":0,"parameterNumber":2,"parameterNumberName":"U-component_of_WINDS"},"data":[0,0,0,0,0,0,0,0,0,0,0,0,0,0,0,0,0,0,0,0,0,0,0,0,0,0,0,0,0,0,0,0,0,0,0,0,0,0,0,0,0,0,0,0,0,0,0,0,0,0,0,0,0,0,0,0,0,0,-0.9607,-0.9607,0,-0.9543,-0.9542,-0.9541,-0.9463,-0.9462,-0.9461,-0.9459,-0.9394,-0.9393,-0.9392,0,0,0,0,0,0,0,0,0,0,0,0,0,-0.966,-0.966,-0.9607,-0.9607,-0.9606,-0.9543,-0.9542,-0.9541,-0.9463,-0.9462,-0.946,-0.9459,-0.9394,-0.9393,-0.9392,0,0,0,0,0,0,0,0,0,0,0,0,0,-0.9621,-0.966,-0.9607,-0.9559,-0.9554,-0.9543,-0.9542,-0.9541,-0.9463,-0.9462,-0.946,-0.9458,-0.9394,-0.9393,-0.9392,-0.9423,0,0,-0.939,-0.9389,0,0,0,0,0,0,0,0,-0.9623,-0.9619,-0.9567,-0.9563,-0.9557,-0.9509,-0.9536,-0.9502,-0.9464,-0.9498,-0.9459,-0.9457,-0.9434,-0.9429,-0.9421,-0.942,-0.9418,-0.9389,-0.9389,-0.9388,-0.9388,0,0,0,0,0,0,0,-0.9626,-0.9621,-0.9582,-0.9566,-0.956,-0.954,-0.9532,-0.953,-0.9477,-0.9495,-0.9489,-0.9482,-0.943,-0.9422,-0.9419,-0.9417,-0.9389,-0.9389,-0.9388,-0.9388,-0.9433,-0.9435,0,0,0,0,0,0,-0.9636,-0.9624,-0.9584,-0.958,-0.9586,-0.954,-0.9532,-0.9526,-0.9477,-0.9467,-0.9484,-0.9479,-0.9425,-0.942,-0.9417,-0.9446,-0.9388,-0.9388,-0.9387,-0.9431,-0.9433,-0.9435,0,0,0,0,0,0,-0.9638,-0.9633,-0.9586,-0.96,-0.9593,-0.9542,-0.9536,-0.9526,-0.9518,-0.9468,-0.9459,-0.9486,-0.9423,-0.9418,-0.9421,-0.9443,-0.9387,-0.9386,-0.9429,-0.9432,-0.9434,-0.9509,0,0,0,0,0,0,-0.964,-0.9634,-0.9647,-0.9601,-0.9592,-0.9593,-0.9537,-0.9526,-0.9516,-0.9509,-0.9467,-0.9459,-0.9421,-0.9423,-0.942,-0.9441,-0.9386,-0.9427,-0.943,-0.9433,-0.9504,-0.9514,-0.9522,0,0,0,0,0,-0.9642,-0.9671,-0.9648,-0.9643,-0.9607,-0.9595,-0.959,-0.9546,-0.9519,-0.9529,-0.9497,-0.946,-0.9441,-0.9424,-0.942,-0.9441,-0.9425,-0.9429,-0.9433,-0.95,-0.9512,-0.9521,0,0,0,0,0,0,-0.9721,-0.9664,-0.9638,-0.9653,-0.9629,-0.9582,-0.9594,-0.956,-0.9544,-0.9538,-0.9484,-0.9475,-0.9484,-0.9463,-0.9445,-0.9466,-0.9428,-0.9431,-0.948,-0.949,-0.9499,-0.9503,-0.9385,0,0,0,0,0,-0.9741,-0.9736,-0.9687,-0.9705,-0.9694,-0.9647,-0.964,-0.9608,-0.9581,-0.957,-0.9539,-0.9514,-0.9501,-0.9495,-0.9482,-0.9501,-0.9488,-0.9513,-0.9522,-0.9529,-0.9532,-0.9537,-0.9546,-0.9448,-0.9448,-0.9448,0,0,-0.9781,-0.9749,-0.975,-0.972,-0.9698,-0.9693,-0.9639,-0.9637,-0.9632,-0.957,-0.957,-0.9546,-0.9514,-0.9525,-0.9528,-0.9507,-0.9556,-0.9534,-0.954,-0.9539,-0.9542,-0.9551,-0.9559,-0.9451,-0.945,-0.945,0,0,-0.9851,-0.9828,-0.9838,-0.9816,-0.9783,-0.975,-0.9753,-0.9709,-0.969,-0.969,-0.9642,-0.9635,-0.9617,-0.9595,-0.9581,-0.9639,-0.9603,-0.9636,-0.9682,-0.9687,-0.9695,-0.9701,-0.9719,-0.9726,-0.964,-0.964,-0.964,0,-0.9905,-0.9896,-0.9849,-0.9849,-0.9836,-0.9778,-0.9787,-0.9769,-0.9733,-0.9724,-0.9702,-0.9674,-0.9649,-0.9652,-0.9666,-0.9658,-0.9657,-0.9641,-0.9698,-0.9704,-0.9709,-0.9725,-0.9732,-0.9644,-0.9644,-0.9643,-0.9643,0,-0.9962,-0.9957,-0.997,-0.9935,-0.9923,-0.9929,-0.988,-0.9874,-0.9843,-0.9812,-0.981,-0.9778,-0.9755,-0.9753,-0.9723,-0.975,-0.9738,-0.9708,-0.9668,-0.9723,-0.9737,-0.9743,-0.965,-0.9649,-0.9647,-0.9646,0,0,-1.0082,-1.0018,-1.0024,-1.0005,-0.9962,-0.9957,-0.9958,-0.9935,-0.9929,-0.9906,-0.9903,-0.9887,-0.9857,-0.9842,-0.9809,-0.9814,-0.9857,-0.9781,-0.978,-0.9794,-0.9881,-0.9903,-0.9911,-0.9833,-0.9834,-0.9835,-0.9883,0,-1.0142,-1.0141,-1.0096,-1.0107,-1.0099,-1.0043,-1.0043,-1.0016,-0.9987,-0.9975,-0.9943,-0.9931,-0.9894,-0.9884,-0.9886,-0.9852,-0.9873,-0.9848,-0.9829,-0.9829,-0.9837,-0.9919,-0.9943,-0.999,-0.9888,-0.9889,-0.989,0,-1.0213,-1.0191,-1.0201,-1.0154,-1.0149,-1.0151,-1.0123,-1.0114,-1.0081,-1.0059,-1.004,-1.0001,-0.9997,-0.996,-0.9952,-0.9935,-0.9925,-0.9906,-0.9907,-0.9902,-0.9862,-0.9914,-1.0004,-1.001,-0.9899,-0.9898,-0.9897,0,-1.0295,-1.0269,-1.027,-1.0257,-1.0203,-1.0205,-1.0182,-1.0147,-1.0135,-1.0111,-1.0102,-1.0079,-1.0066,-1.0048,-1.0003,-0.9981,-0.9999,-0.9959,-0.9978,-0.9979,-0.9984,-0.9984,-1.0071,-0.9981,-0.9981,-0.9981,-0.9981,0,-1.0366,-1.0373,-1.0306,-1.0307,-1.0312,-1.026,-1.0267,-1.0239,-1.0208,-1.02,-1.0151,-1.0145,-1.0087,-1.0074,-1.0039,-1.0035,-1.003,-1.0011,-1.0001,-1.0014,-1.0016,-1.0005,-1.0,-0.9982,-0.9982,-0.9982,-0.9981,0,-1.0459,-1.0415,-1.0412,-1.036,-1.0347,-1.0353,-1.0308,-1.0306,-1.0273,-1.0264,-1.0259,-1.0206,-1.0188,-1.0141,-1.0112,-1.0087,-1.0093,-1.0076,-1.0104,-1.0097,-1.0118,-1.0116,-1.02,-1.0207,-1.0115,-1.0116,-1.0117,0,-1.0507,-1.051,-1.0459,-1.045,-1.0429,-1.0417,-1.0403,-1.0351,-1.0339,-1.0299,-1.0301,-1.0278,-1.0257,-1.023,-1.0189,-1.0165,-1.0146,-1.0177,-1.0142,-1.0153,-1.0143,-1.0142,-1.0141,-1.0184,-1.0185,-1.0186,-1.0187,0,-1.0594,-1.0571,-1.0554,-1.0527,-1.0512,-1.049,-1.0464,-1.046,-1.0401,-1.0389,-1.0369,-1.0353,-1.0321,-1.0298,-1.0267,-1.0242,-1.0204,-1.0198,-1.0201,-1.0214,-1.0228,-1.0218,-1.0122,-1.0197,-1.0196,-1.0195,-1.0194,-1.0194,-1.0663,-1.0663,-1.0625,-1.0607,-1.0581,-1.0558,-1.0552,-1.0517,-1.0499,-1.0469,-1.0439,-1.0421,-1.0384,-1.0338,-1.0316,-1.03,-1.0281,-1.0286,-1.0287,-1.0288,-1.0292,-1.0232,-1.0295,-1.0294,-1.0294,-1.0294,-1.0294,0,-1.0746,-1.0718,-1.0702,-1.0666,-1.0651,-1.0616,-1.0585,-1.0574,-1.0559,-1.0528,-1.0508,-1.0483,-1.046,-1.0416,-1.0388,-1.0383,-1.0365,-1.0378,-1.0377,-1.0371,-1.0313,-1.0312,-1.0393,-1.0393,-1.0393,-1.0393,-1.0393,-1.0393,-1.0787,-1.0783,-1.0755,-1.0737,-1.0709,-1.0691,-1.0676,-1.0652,-1.0627,-1.0602,-1.0582,-1.0553,-1.0515,-1.0484,-1.046,-1.0448,-1.0439,-1.0457,-1.0438,-1.0385,-1.0375,-1.0366,-1.0365,-1.0456,-1.0456,-1.0497,-1.0497,-1.0498]},{"header":{"parameterUnit":"m.s-1","parameterCategory":1,"la1":30.2991,"la2":30.254,"lo1":-89.0895,"lo2":-89.0444,"dy":0.0017,"dx":0.0017,"nx":28,"ny":28,"refTime":"2025-08-03T03:00:00:Z","depth":0,"parameterNumber":3,"parameterNumberName":"V-component_of_WINDS"},"data":[0,0,0,0,0,0,0,0,0,0,0,0,0,0,0,0,0,0,0,0,0,0,0,0,0,0,0,0,0,0,0,0,0,0,0,0,0,0,0,0,0,0,0,0,0,0,0,0,0,0,0,0,0,0,0,0,0,0,-2.5486,-2.5486,0,-2.5528,-2.5528,-2.5529,-2.5506,-2.5504,-2.5503,-2.5502,-2.5542,-2.5544,-2.5546,0,0,0,0,0,0,0,0,0,0,0,0,0,-2.5383,-2.5385,-2.5485,-2.5486,-2.5487,-2.5528,-2.5528,-2.5529,-2.5506,-2.5504,-2.5503,-2.5502,-2.5541,-2.5544,-2.5546,0,0,0,0,0,0,0,0,0,0,0,0,0,-2.5427,-2.5386,-2.5485,-2.548,-2.548,-2.5527,-2.5528,-2.5529,-2.5506,-2.5504,-2.5503,-2.5501,-2.5541,-2.5544,-2.5547,-2.5601,0,0,-2.5557,-2.5558,0,0,0,0,0,0,0,0,-2.5424,-2.5431,-2.548,-2.5481,-2.5481,-2.551,-2.5507,-2.5553,-2.5506,-2.5496,-2.5502,-2.55,-2.5532,-2.5536,-2.5548,-2.5603,-2.5604,-2.5557,-2.5559,-2.556,-2.5561,0,0,0,0,0,0,0,-2.5421,-2.5429,-2.5502,-2.5481,-2.5481,-2.5475,-2.5479,-2.5515,-2.5523,-2.5497,-2.5495,-2.5501,-2.5532,-2.5545,-2.5549,-2.5605,-2.5557,-2.556,-2.5562,-2.5563,-2.5708,-2.571,0,0,0,0,0,0,-2.5419,-2.5426,-2.5501,-2.5503,-2.5448,-2.5478,-2.5483,-2.5502,-2.5523,-2.5524,-2.5502,-2.55,-2.554,-2.5545,-2.555,-2.5616,-2.556,-2.5563,-2.5565,-2.5706,-2.5709,-2.5711,0,0,0,0,0,0,-2.5417,-2.5426,-2.5499,-2.5464,-2.5473,-2.5482,-2.5503,-2.5504,-2.5516,-2.5527,-2.5528,-2.5514,-2.5539,-2.5545,-2.5589,-2.5617,-2.5565,-2.5567,-2.5704,-2.5707,-2.571,-2.5747,0,0,0,0,0,0,-2.5414,-2.5425,-2.5446,-2.5465,-2.5475,-2.5538,-2.5505,-2.5506,-2.5522,-2.5519,-2.5538,-2.5539,-2.5538,-2.5584,-2.5592,-2.562,-2.557,-2.5702,-2.5705,-2.5709,-2.5743,-2.5751,-2.5757,0,0,0,0,0,-2.5411,-2.5454,-2.5447,-2.5456,-2.5502,-2.554,-2.5545,-2.5544,-2.5525,-2.5546,-2.5553,-2.5539,-2.5613,-2.5589,-2.5598,-2.5627,-2.57,-2.5704,-2.5709,-2.574,-2.5749,-2.5757,0,0,0,0,0,0,-2.5436,-2.5456,-2.5449,-2.55,-2.5519,-2.5536,-2.5562,-2.5553,-2.5577,-2.5573,-2.5569,-2.5573,-2.5619,-2.5627,-2.5601,-2.5681,-2.5653,-2.566,-2.5674,-2.5683,-2.569,-2.5687,-2.5573,0,0,0,0,0,-2.5448,-2.5478,-2.5493,-2.5536,-2.5546,-2.5553,-2.5569,-2.5567,-2.5585,-2.5593,-2.5603,-2.5621,-2.5648,-2.5666,-2.5692,-2.5745,-2.5749,-2.5769,-2.5776,-2.5782,-2.5787,-2.5818,-2.5827,-2.5725,-2.5725,-2.5725,0,0,-2.5471,-2.5486,-2.5505,-2.5542,-2.5556,-2.5587,-2.5559,-2.5592,-2.5615,-2.5597,-2.564,-2.5648,-2.5668,-2.5717,-2.5739,-2.5725,-2.5817,-2.5788,-2.5792,-2.5794,-2.5823,-2.5833,-2.5841,-2.5728,-2.5728,-2.5727,0,0,-2.5531,-2.5545,-2.5584,-2.5599,-2.5622,-2.5626,-2.5635,-2.5655,-2.566,-2.5703,-2.5691,-2.5718,-2.5764,-2.578,-2.5794,-2.5862,-2.5851,-2.5871,-2.5907,-2.5936,-2.5944,-2.5951,-2.5977,-2.5986,-2.5876,-2.5876,-2.5876,0,-2.5557,-2.5604,-2.5604,-2.5639,-2.5656,-2.5644,-2.5683,-2.5697,-2.5726,-2.5738,-2.5723,-2.5783,-2.5795,-2.5849,-2.5866,-2.5877,-2.5888,-2.5868,-2.5943,-2.5951,-2.5957,-2.5981,-2.5991,-2.5878,-2.5878,-2.5878,-2.5878,0,-2.5636,-2.5669,-2.5697,-2.5728,-2.5749,-2.5785,-2.5791,-2.5811,-2.5808,-2.5814,-2.5858,-2.5873,-2.5902,-2.5915,-2.5911,-2.5969,-2.5959,-2.5944,-2.5915,-2.5969,-2.5992,-2.6001,-2.5882,-2.5881,-2.588,-2.588,0,0,-2.5711,-2.5743,-2.5754,-2.5768,-2.5794,-2.5819,-2.5856,-2.5886,-2.5904,-2.5925,-2.5956,-2.5998,-2.5984,-2.6,-2.5998,-2.6024,-2.6079,-2.6005,-2.6006,-2.6019,-2.6144,-2.6156,-2.6167,-2.6072,-2.6073,-2.6075,-2.6143,0,-2.5773,-2.5838,-2.584,-2.59,-2.5931,-2.5921,-2.5953,-2.5972,-2.5979,-2.6006,-2.6014,-2.6044,-2.6023,-2.6033,-2.6058,-2.6067,-2.6104,-2.6062,-2.61,-2.6102,-2.6096,-2.6178,-2.619,-2.6253,-2.6152,-2.6153,-2.6154,0,-2.5853,-2.5879,-2.5942,-2.5966,-2.5979,-2.6008,-2.6037,-2.6063,-2.6084,-2.6088,-2.6107,-2.6102,-2.614,-2.6111,-2.6163,-2.6135,-2.6151,-2.6158,-2.616,-2.6163,-2.6131,-2.6184,-2.6273,-2.6283,-2.6168,-2.6167,-2.6166,0,-2.5902,-2.5953,-2.5998,-2.6011,-2.6038,-2.6059,-2.6072,-2.6092,-2.6111,-2.6136,-2.6148,-2.6177,-2.6193,-2.6215,-2.6218,-2.6197,-2.6271,-2.6242,-2.6275,-2.6275,-2.6291,-2.629,-2.6384,-2.6301,-2.6301,-2.6301,-2.6301,0,-2.597,-2.6009,-2.602,-2.6048,-2.6092,-2.6095,-2.6138,-2.6149,-2.6167,-2.6197,-2.6189,-2.6217,-2.6219,-2.6248,-2.625,-2.6294,-2.6301,-2.6305,-2.6305,-2.6306,-2.6305,-2.6316,-2.6311,-2.6303,-2.6303,-2.6302,-2.6302,0,-2.6031,-2.604,-2.6089,-2.6113,-2.612,-2.6151,-2.6171,-2.6197,-2.6205,-2.6243,-2.6252,-2.6263,-2.6297,-2.6303,-2.6341,-2.6343,-2.6396,-2.6391,-2.6389,-2.6388,-2.6421,-2.6418,-2.6525,-2.654,-2.6448,-2.6448,-2.6449,0,-2.6074,-2.6105,-2.6133,-2.6153,-2.6167,-2.6199,-2.6219,-2.6223,-2.6244,-2.6273,-2.6296,-2.6329,-2.6356,-2.641,-2.6422,-2.6452,-2.6448,-2.6484,-2.6452,-2.6453,-2.6449,-2.6447,-2.6451,-2.649,-2.6491,-2.6491,-2.6492,0,-2.615,-2.6154,-2.6183,-2.6216,-2.624,-2.6265,-2.6289,-2.6306,-2.6313,-2.6337,-2.6372,-2.6393,-2.6435,-2.6468,-2.6499,-2.6511,-2.6503,-2.6502,-2.6512,-2.6512,-2.651,-2.6512,-2.6405,-2.6499,-2.6499,-2.6498,-2.6498,-2.6498,-2.6204,-2.6231,-2.6256,-2.6289,-2.6308,-2.6331,-2.6358,-2.637,-2.64,-2.6435,-2.6436,-2.6475,-2.6497,-2.6538,-2.6553,-2.6583,-2.6572,-2.6585,-2.6588,-2.6591,-2.6595,-2.6506,-2.6589,-2.6588,-2.6588,-2.6588,-2.6588,0,-2.6279,-2.6295,-2.6327,-2.6361,-2.6388,-2.6381,-2.6407,-2.643,-2.6465,-2.6487,-2.6515,-2.6556,-2.6589,-2.6605,-2.6637,-2.6659,-2.6656,-2.6667,-2.6665,-2.6669,-2.6603,-2.6592,-2.6669,-2.6669,-2.6669,-2.6669,-2.6669,-2.6669,-2.6321,-2.6368,-2.6375,-2.6431,-2.6447,-2.6486,-2.6502,-2.6523,-2.6542,-2.6589,-2.6617,-2.6627,-2.6648,-2.6682,-2.6712,-2.6716,-2.6728,-2.6741,-2.6743,-2.6681,-2.6673,-2.6665,-2.6655,-2.6744,-2.6744,-2.6806,-2.6807,-2.6807]}]]